Torna al catalogo

STARLINK-31683

AttivoComunicazioniVLEO
NORAD 59573·PAYLOAD·🇺🇸 United States

Lanciato Apr 23, 2024 da Cape Canaveral Space Force Station

Loading…

Prossimi Passaggi (prossime 24 ore)

TLE

AggiornatoSource: CelesTrak SupGP

Epoca: Sep 14, 2026, 20:46 UTC

1 59573C 24076K   26257.86576389  .00054475  00000+0  19733-2 0  2578
2 59573  43.0037  20.5118 0001559 273.8874 174.8618 15.27548457    18

Traccia STARLINK-31683 in tempo reale con AllMySat

Download on the App Store